Aérodrome :
LOGIN :

S'inscrire | Disclaimer

   EN    FR    IT 

 










Légende :    VFR   VFR Marginal   IFR   IFR Intensif   IFR Très Intensif
Visi : 
Plafond : 
>= 8 km
>= 3000ft
5 à 8 km
1000 à 3000 ft
1500m à 5 km
500 à 1000 ft
800 à 1500m
200 à 500 ft
< 800m
< 200 ft
Symboles :   Orages  Brouillard  Fortes neiges  Fortes précipitations  Vent > 20 kt
SIGMETs :   Divers  Orages  Givrage  Turbulence  Onde Orograph.  Cendres Volcan.






- Altitude de l'aérodrome : 1830 ft


EBLB - Butgenbach Elsenborn

DERNIER METAR :
  • 080555Z AUTO VRB01KT 9999 NCD M08/M11 Q1035 BLU

METARs EXPIRÉS :
  • 080525Z AUTO VRB01KT 9999 NCD M08/M11 Q1035 BLU
  • 080455Z AUTO VRB02KT 9999 NCD M07/M11 Q1035 BLU
  • 080425Z AUTO VRB01KT 9999 NCD M07/M10 Q1035 BLU
  • 080355Z AUTO VRB02KT 9999 NCD M07/M11 Q1035 BLU
  • 080325Z AUTO 10003KT 9999 NCD M07/M11 Q1035 BLU
  • 080255Z AUTO VRB02KT 9999 NCD M07/M11 Q1035 BLU

Prévision TAF périmée.



MET'MAP, la Météo Aéronautique d'un coup d'oeil ! - Copyright ORBIFLY Décembre 2007 - Disclaimer

ORBIFLY MET'MAP TEAM :

Programmation & Développement : Alexandra Zaïnal
Sur une idée originale de : Baudouin d'Aumeries
Soutien technique & logistique : Manuel Goepfert
Assistance : Marc-Olivier Méhu




SOURCES & CREDITS :

   NOAA